Torna al catalogo

DELTA 1 DEB

AttivoLEO
NORAD 10659·DEBRIS·🇺🇸 United States

Lanciato Jul 29, 1976 da Vandenberg Space Force Base

Loading…

Prossimi Passaggi (prossime 24 ore)

TLE

AggiornatoSource: Space-Track

Epoca: Sep 14, 2026, 07:16 UTC

1 10659U 76077V   26257.30296984 -.00000100  00000-0 -60357-3 0  9998
2 10659 102.1988 188.9510 0174902 286.0856 231.0560 12.09431659213409

Traccia DELTA 1 DEB in tempo reale con AllMySat

Download on the App Store